Location: Freiburg im Breisgau
(47.9961°N, 7.8494°E)
Time: 13:53:46
(UTC+02:00)

ISS - Pass Details

Date: 23 March 2021
Orbit: 419 x 421 km, 51.6° (Epoch: 31 July)

Event Time Altitude Azimuth Distance (km) Brightness Sun altitude
Rises 20:16:12 0° 264° (W) 2,368 1.3 -15.6°
Reaches altitude 10° 20:18:20 10° 270° (W) 1,503 0.2 -15.9°
Maximum altitude 20:21:39 51° 348° (NNW) 534 -3.1 -16.4°
Enters shadow 20:23:15 26° 53° (NE) 865 -2.5 -16.7°
